Simultaneous Nadir Overpasses (SNOs) Predictions

Prediction of SNOs between LANDSAT-8 and METOP-B Satellite Orbit:

Table of predicted SNOs for the next 14.0 days since TLE Epoch: 1/4/2020
Index Date (LANDSAT-8) Time (LANDSAT-8) Lat,Lon (LANDSAT-8) SZA (LANDSAT-8 ) Date (METOP-B) Time (METOP-B) Lat,Lon (METOP-B) SZA (METOP-B ) Distance(km) Time Diff (sec)
1 01/06/2020 00:25:11 -81.11, 33.30 74.54 01/06/2020 00:25:00 -81.11, 33.38 74.54 1.34 11
2 01/06/2020 01:14:37 81.11,-159.02 105.46 01/06/2020 01:15:40 81.12,-158.97 105.50 1.01 63
3 01/08/2020 19:10:19 80.55, -74.98 104.00 01/08/2020 19:09:05 80.74, -75.47 104.11 22.91 74
4 01/08/2020 19:59:26 -81.09, 99.50 74.96 01/08/2020 19:59:25 -81.09, 99.41 74.97 1.59 1
5 01/08/2020 20:48:51 81.12, -92.48 105.10 01/08/2020 20:50:04 81.12, -92.60 105.11 2.15 73
6 01/11/2020 14:44:14 81.08, -1.97 104.58 01/11/2020 14:43:09 81.08, -1.88 104.57 1.52 65
7 01/11/2020 15:33:40 -81.10, 166.06 75.38 01/11/2020 15:33:48 -81.11, 166.19 75.36 2.31 8
8 01/14/2020 10:18:27 81.08, 64.56 104.11 01/14/2020 10:17:32 81.08, 64.47 104.07 1.56 55
9 01/14/2020 11:07:53 -81.11,-127.40 75.85 01/14/2020 11:08:11 -81.11,-127.42 75.84 0.42 18
10 01/17/2020 05:52:41 81.09, 131.08 103.58 01/17/2020 05:51:55 81.09, 131.19 103.57 2.03 46




NCC Satellite Simultaneous Nadir Overpasses (SNOs) Prediction Service
